Location: Clayton (historical)
(34.0300°N, 118.0259°W)
Time: 10:41:03
(UTC+00:00)

Hubble Space Telescope - Pass Details

Date: 26 January 2021
Orbit: 536 x 539 km, 28.5° (Epoch: 28 February)

Event Time Altitude Azimuth Distance (km) Brightness Sun altitude
Rises 02:42:15 0° 263° (W) 2,674 6.1 -17.9°
Reaches altitude 10° 02:44:52 10° 248° (WSW) 1,783 4.6 -18.4°
Maximum altitude 02:48:07 22° 196° (SSW) 1,179 2.8 -19.1°
Enters shadow 02:50:27 14° 153° (SSE) 1,524 2.9 -19.6°
